Wind_Speed
27 29 29 30 35 43 43 30 25 31 30 32 34 36 38 39 38 35 30 23 18 15 14 11 14 8 5 7 7 9 10 23 26 29 34 32 30 27 24 19 20 20 18 17
20 25 30 33 36 44 40 37 31 25 27 23 29 35 37 32 32 38 31 30 24 18 18 17 14 14 9 5 7 7 11 10 21 32 32 32 31 26 20 22 21 21 21 21
18 23 27 34 37 42 42 38 35 30 29 26 27 30 35 34 29 30 34 30 30 25 21 15 18 17 10 10 6 7 8 10 7 19 30 30 29 26 21 23 24 23 20 22
17 19 25 32 38 42 44 39 40 38 41 25 36 29 34 34 37 30 30 26 30 24 23 19 21 17 16 13 8 8 6 9 9 8 19 26 28 30 26 24 28 29 30 30
16 17 23 32 37 41 45 45 38 40 42 39 36 31 26 33 36 40 34 31 27 27 28 27 24 19 16 18 13 8 7 6 9 10 11 21 28 29 30 27 31 36 35 32
19 15 19 26 32 40 45 52 49 43 39 44 42 40 42 30 26 32 37 41 29 25 30 23 28 27 25 17 17 13 9 6 8 11 13 13 21 26 27 26 28 31 28 23
22 20 16 23 29 34 43 47 48 44 47 48 43 41 46 36 35 25 25 24 28 33 26 28 28 32 30 20 20 17 12 9 4 12 14 17 16 18 22 24 24 27 27 26
18 20 19 19 26 30 38 46 52 54 56 49 49 48 43 49 47 42 33 27 26 31 21 29 36 33 31 27 27 23 18 10 8 6 13 18 22 22 24 26 27 27 30 30
20 19 20 18 22 26 32 42 49 58 56 49 48 55 51 38 41 45 41 33 30 25 15 17 20 25 29 31 26 30 26 21 16 9 9 12 19 23 28 27 30 32 34 32
16 19 20 17 18 22 27 35 45 51 57 54 53 56 49 41 42 38 33 44 43 34 33 25 22 23 27 26 31 32 27 25 18 15 14 9 11 12 19 26 31 32 34 36
19 18 21 19 17 18 23 29 35 43 49 55 60 58 56 56 50 50 44 45 51 49 45 43 32 30 31 33 29 31 33 34 29 25 22 20 18 12 16 14 19 27 30 34
25 25 22 21 17 16 17 23 30 35 39 43 49 56 62 62 54 50 50 52 59 57 52 53 45 37 35 33 32 28 39 37 32 30 26 26 26 23 13 11 13 19 21 26
29 26 22 22 17 20 19 20 24 27 31 35 38 42 46 52 52 52 56 58 60 64 63 60 51 45 41 37 35 32 33 41 42 36 29 21 26 29 24 23 21 17 16 21
27 23 22 22 22 20 22 21 21 24 27 29 32 34 40 44 47 50 54 55 58 60 61 59 57 53 48 43 40 39 41 40 43 44 36 36 32 28 24 22 17 15 11 14
23 23 22 24 24 25 20 24 24 25 29 28 27 29 31 32 38 43 48 52 54 54 54 55 56 61 57 51 50 50 49 45 42 41 42 39 31 25 21 19 11 13 16 11
27 28 23 20 26 22 27 19 27 26 20 18 20 20 25 30 33 36 39 43 47 51 52 52 54 57 63 61 57 58 58 54 48 46 44 41 37 36 30 20 13 19 22 19
37 37 31 27 25 27 22 29 25 25 28 23 20 21 23 24 25 25 29 34 38 42 44 44 45 48 48 46 45 49 53 57 55 49 47 44 46 43 38 25 31 25 28 24
43 45 40 37 33 27 30 29 32 24 27 25 30 28 29 24 25 27 30 33 37 41 40 38 41 42 41 42 43 42 46 50 57 56 53 50 48 45 46 42 34 32 31 27
49 49 46 43 42 37 35 35 36 32 32 27 29 31 31 26 24 25 28 32 34 36 37 40 39 41 40 41 41 40 42 46 49 58 59 56 53 51 48 44 37 35 32 30
53 54 52 47 47 43 45 43 38 35 29 38 38 34 33 30 25 24 26 30 31 34 37 40 40 42 42 44 43 40 40 42 45 51 61 63 62 59 52 48 45 43 44 33
54 52 49 47 44 42 48 47 38 33 40 35 37 37 33 35 32 27 25 23 25 27 30 36 39 40 44 46 46 43 42 42 44 47 56 65 66 63 58 53 54 50 48 42
60 54 46 47 41 38 43 43 38 42 40 42 39 37 32 37 36 32 28 28 28 28 27 29 33 37 40 41 44 47 46 43 43 44 49 61 67 68 64 57 58 52 48 50
63 59 52 47 42 40 40 43 41 41 42 43 43 40 36 35 35 35 32 29 30 30 30 31 34 36 39 42 42 43 44 43 42 45 45 55 65 69 67 62 60 56 52 49
57 60 57 51 45 40 41 42 40 39 42 43 41 38 39 38 39 34 32 29 29 30 32 35 33 33 37 41 44 44 44 47 49 47 47 50 62 68 70 65 61 64 53 48
61 59 59 57 53 48 42 40 40 42 41 42 38 37 36 38 35 34 31 28 27 28 34 36 31 32 35 37 38 41 43 42 42 44 44 48 57 66 69 70 65 66 61 56
64 60 60 57 57 50 44 41 41 42 35 37 32 31 31 29 29 29 28 28 27 32 35 35 35 35 44 44 42 32 37 40 40 38 39 46 54 63 67 70 69 64 67 60
Wind_Direction
250 240 236 225 207 206 204 213 223 231 223 223 231 230 225 230 235 239 242 236 229 245 265 310 281 299 329 14 331 273 265 240 230 225 218 210 213 224 230 240 234 248 258 268
252 243 234 227 215 211 220 216 219 206 209 220 232 228 225 226 233 230 227 243 235 223 253 282 277 303 276 320 358 304 272 256 240 229 221 223 224 230 240 239 233 244 259 260
268 249 233 228 222 216 219 224 222 203 214 221 232 228 222 220 207 232 237 244 245 248 246 267 247 280 299 270 319 332 271 268 260 223 220 219 226 232 240 238 238 243 259 261
276 259 238 229 223 218 217 220 214 219 209 207 227 230 224 214 209 215 220 226 246 253 262 257 222 258 286 270 269 311 312 256 264 251 216 220 219 228 233 235 244 253 263 267
275 273 248 235 224 220 217 215 209 214 213 215 225 212 208 219 229 230 225 232 230 242 259 259 226 230 263 275 251 282 306 261 234 244 231 216 217 225 234 236 243 251 260 260
272 276 259 242 234 227 221 218 216 220 215 227 226 217 209 206 207 225 232 236 236 244 242 235 231 241 249 261 254 259 292 315 242 233 230 226 216 219 226 231 242 250 246 240
272 264 259 245 244 231 224 226 220 222 219 224 220 219 217 212 207 217 216 226 230 222 228 239 226 240 242 250 245 243 258 288 286 233 234 226 219 222 218 225 227 234 235 248
279 266 262 257 240 239 229 223 223 219 219 222 219 228 225 226 223 235 224 230 245 225 221 226 220 233 245 245 240 241 238 249 287 275 236 234 232 227 220 221 232 239 244 250
289 268 257 255 245 238 232 226 225 222 219 217 215 220 219 228 232 234 220 217 224 192 213 224 236 240 241 242 242 242 241 242 250 247 252 244 239 242 238 236 241 247 249 248
291 271 258 253 252 243 238 230 229 228 224 217 213 216 217 233 239 228 225 221 220 214 230 239 244 244 249 247 249 238 233 221 241 231 247 241 223 241 246 248 247 247 251 256
276 284 261 248 254 247 241 239 236 235 232 228 219 215 221 237 240 240 237 233 242 244 247 257 253 241 243 247 243 237 236 236 240 234 252 253 250 261 269 263 263 254 255 258
273 282 260 253 248 254 248 240 237 237 238 237 234 232 234 234 238 243 243 238 242 247 247 247 253 252 246 245 244 239 238 242 249 243 242 251 254 259 259 279 278 269 259 257
277 275 252 257 250 246 242 243 242 242 241 241 240 238 233 238 234 236 240 243 246 248 246 245 252 252 247 242 246 251 247 239 241 243 246 245 255 258 258 274 292 289 275 262
273 257 251 252 249 255 250 250 247 240 238 236 235 233 237 239 234 234 238 242 246 249 252 253 253 254 254 252 249 247 249 246 239 242 248 252 252 251 259 277 291 295 299 258
263 262 258 255 253 241 254 251 248 255 242 242 237 236 234 238 242 237 235 237 242 246 251 254 258 259 258 255 254 248 245 245 245 244 245 244 238 240 262 273 278 311 327 309
253 257 261 262 243 250 242 257 255 257 257 250 244 251 244 238 234 240 243 242 241 241 243 245 248 251 253 252 247 246 245 242 238 237 240 235 232 240 251 245 275 310 299 307
249 254 256 255 254 241 247 247 246 256 258 256 254 249 247 242 242 240 244 249 252 249 244 244 249 248 248 248 246 240 241 242 242 236 237 235 233 236 239 227 255 257 262 275
246 250 251 255 255 251 251 250 247 248 252 255 252 249 246 234 233 237 239 242 245 250 254 251 249 249 248 249 251 247 242 239 239 237 233 235 235 233 230 219 243 233 245 246
248 249 250 253 256 254 253 254 249 244 248 249 258 257 252 249 239 235 234 240 245 250 254 254 250 250 247 242 242 244 249 246 239 236 231 230 229 231 227 223 221 226 225 221
253 250 253 254 254 255 256 255 250 242 244 244 250 257 254 255 255 247 241 237 241 247 248 250 250 249 246 240 240 243 247 251 247 236 233 229 227 230 226 225 215 215 223 231
256 253 253 253 252 251 252 252 251 248 241 248 250 255 265 260 251 255 261 257 253 255 257 257 255 251 249 247 245 247 246 251 252 243 231 230 227 226 223 223 219 211 216 219
256 252 251 252 248 249 254 252 248 241 243 241 248 253 253 258 257 252 257 260 262 269 275 273 267 260 256 250 249 248 245 245 250 248 237 228 227 224 224 223 219 209 212 215
253 253 249 248 244 239 245 249 243 240 242 247 249 250 250 258 256 244 247 256 262 267 280 280 271 265 260 259 255 249 245 244 247 249 246 232 226 223 222 223 221 216 217 220
248 249 248 245 245 238 237 244 245 241 240 248 246 254 266 267 262 251 245 254 264 272 283 282 277 268 263 260 257 256 251 250 251 255 248 240 227 223 221 221 222 219 220 222
244 246 242 240 237 235 229 229 236 236 236 237 249 255 255 262 253 249 246 256 263 276 284 283 280 271 267 264 260 260 256 254 255 253 245 241 231 223 220 220 221 220 220 223
241 243 243 239 235 235 229 222 220 233 238 242 250 253 253 259 253 242 247 259 270 281 284 281 278 268 275 273 265 267 260 251 249 251 243 239 230 222 220 219 220 222 220 219
Height
10895 10897 10900 10905 10907 10910 10912 10915 10919 10921 10923 10927 10930 10934 10938 10941 10948 10953 10955 10958 10961 10964 10966 10967 10965 10966 10964 10962 10961 10960 10959 10961 10966 10968 10971 10974 10978 10981 10984 10990 10992 10993 10993 10994
10888 10890 10893 10895 10899 10903 10908 10912 10915 10919 10920 10922 10925 10926 10931 10936 10939 10944 10948 10952 10956 10959 10962 10963 10963 10963 10963 10962 10960 10959 10959 10959 10960 10962 10967 10972 10975 10978 10981 10986 10988 10990 10990 10992
10882 10882 10884 10886 10891 10895 10900 10905 10908 10910 10914 10917 10919 10921 10925 10930 10934 10938 10942 10946 10947 10953 10957 10960 10960 10961 10961 10961 10959 10959 10958 10957 10956 10957 10962 10967 10971 10975 10979 10981 10983 10985 10987 10987
10876 10875 10876 10876 10880 10886 10891 10897 10900 10902 10908 10910 10916 10918 10921 10925 10928 10932 10938 10942 10943 10946 10950 10955 10958 10957 10957 10958 10958 10957 10955 10956 10956 10955 10956 10961 10966 10970 10975 10978 10978 10980 10981 10983
10872 10870 10868 10868 10871 10876 10882 10886 10888 10893 10900 10905 10909 10916 10916 10920 10924 10928 10932 10934 10938 10941 10945 10948 10951 10954 10955 10955 10957 10956 10955 10954 10955 10956 10956 10957 10961 10966 10971 10975 10974 10976 10978 10979
10868 10866 10863 10862 10865 10869 10873 10873 10883 10888 10895 10898 10904 10908 10911 10916 10920 10922 10927 10931 10934 10935 10938 10942 10945 10948 10950 10951 10953 10954 10954 10954 10954 10953 10956 10956 10959 10963 10967 10970 10970 10973 10975 10975
10861 10860 10860 10858 10857 10861 10865 10870 10877 10881 10887 10890 10898 10903 10906 10911 10914 10918 10920 10923 10927 10931 10932 10936 10939 10941 10946 10948 10949 10952 10953 10953 10953 10952 10953 10956 10958 10960 10963 10966 10967 10969 10973 10973
10854 10852 10853 10852 10851 10854 10857 10862 10865 10871 10875 10883 10894 10895 10899 10903 10909 10912 10917 10920 10923 10925 10927 10927 10934 10936 10940 10944 10945 10948 10951 10951 10953 10952 10952 10954 10957 10958 10960 10962 10963 10964 10967 10970
10848 10847 10845 10846 10845 10846 10849 10853 10856 10857 10865 10878 10884 10887 10890 10895 10902 10904 10909 10914 10917 10918 10922 10923 10924 10927 10934 10938 10939 10943 10945 10946 10948 10950 10950 10950 10951 10954 10956 10958 10958 10960 10961 10962
10842 10841 10840 10841 10840 10840 10842 10844 10846 10850 10857 10866 10872 10879 10884 10890 10893 10899 10902 10906 10908 10911 10914 10918 10920 10923 10926 10930 10932 10936 10939 10940 10943 10946 10946 10947 10949 10950 10950 10950 10951 10953 10954 10955
10838 10837 10836 10836 10834 10835 10836 10837 10840 10843 10847 10857 10868 10875 10878 10879 10886 10889 10896 10898 10896 10900 10906 10907 10913 10917 10921 10923 10926 10930 10933 10937 10938 10940 10942 10943 10945 10946 10945 10945 10946 10946 10947 10948
10832 10832 10831 10830 10832 10830 10829 10830 10832 10835 10840 10845 10853 10862 10867 10872 10879 10883 10885 10888 10887 10891 10899 10900 10905 10909 10913 10916 10917 10923 10927 10930 10931 10934 10936 10937 10941 10943 10942 10940 10942 10943 10942 10942
10823 10824 10824 10825 10827 10824 10823 10823 10826 10829 10833 10838 10843 10849 10857 10858 10869 10873 10871 10874 10875 10876 10883 10890 10895 10899 10903 10907 10908 10912 10919 10924 10925 10928 10930 10932 10936 10939 10939 10937 10937 10939 10939 10937
10813 10816 10816 10818 10819 10818 10818 10818 10820 10822 10823 10826 10832 10837 10841 10846 10854 10859 10860 10861 10862 10864 10868 10875 10881 10885 10891 10895 10901 10906 10911 10914 10917 10921 10924 10926 10931 10935 10936 10935 10935 10937 10936 10934
10806 10807 10809 10810 10810 10812 10812 10813 10815 10816 10817 10820 10824 10828 10832 10836 10838 10843 10847 10850 10852 10857 10861 10866 10866 10871 10878 10887 10890 10894 10898 10902 10907 10911 10914 10920 10925 10929 10931 10934 10933 10935 10936 10934
10797 10798 10801 10802 10803 10805 10806 10808 10809 10811 10813 10816 10818 10820 10822 10825 10828 10831 10834 10837 10840 10844 10850 10853 10855 10860 10866 10873 10879 10879 10883 10889 10895 10900 10904 10912 10917 10920 10923 10927 10931 10934 10934 10936
10789 10789 10791 10794 10795 10798 10802 10799 10802 10805 10807 10809 10812 10815 10815 10818 10821 10823 10824 10825 10827 10831 10836 10842 10845 10848 10853 10858 10862 10867 10870 10873 10879 10887 10892 10898 10904 10909 10914 10922 10940 10930 10931 10934
10777 10776 10781 10783 10786 10791 10790 10794 10797 10800 10798 10802 10803 10806 10808 10813 10815 10816 10817 10819 10820 10821 10826 10832 10833 10836 10842 10846 10848 10851 10855 10860 10864 10870 10879 10885 10889 10895 10900 10907 10909 10917 10922 10928
10762 10764 10768 10773 10776 10781 10783 10784 10788 10792 10794 10795 10793 10796 10801 10804 10808 10809 10809 10810 10812 10815 10817 10817 10821 10825 10830 10834 10835 10838 10841 10844 10850 10856 10863 10871 10876 10882 10886 10894 10900 10907 10914 10918
10743 10750 10755 10762 10766 10770 10768 10772 10777 10783 10785 10782 10782 10786 10789 10792 10796 10798 10800 10803 10805 10805 10806 10807 10810 10813 10817 10822 10825 10828 10829 10830 10834 10841 10847 10856 10862 10867 10876 10882 10891 10899 10905 10902
10724 10732 10741 10747 10753 10758 10755 10760 10768 10774 10772 10774 10775 10776 10781 10784 10787 10789 10791 10794 10795 10795 10796 10797 10799 10801 10805 10808 10812 10816 10818 10819 10820 10824 10831 10836 10845 10854 10863 10871 10880 10889 10893 10897
10708 10717 10727 10732 10740 10748 10747 10750 10758 10757 10761 10763 10765 10770 10772 10773 10777 10781 10784 10784 10784 10783 10786 10788 10788 10789 10790 10794 10798 10801 10804 10806 10806 10808 10815 10822 10830 10840 10848 10856 10866 10873 10878 10883
10692 10701 10712 10718 10724 10731 10735 10735 10743 10747 10749 10753 10757 10759 10760 10762 10766 10771 10774 10777 10777 10776 10777 10777 10776 10777 10778 10781 10785 10788 10791 10793 10794 10796 10800 10805 10813 10822 10833 10842 10851 10859 10865 10870
10680 10685 10694 10702 10711 10717 10721 10725 10730 10737 10740 10743 10749 10751 10752 10754 10755 10760 10765 10768 10769 10768 10766 10765 10765 10765 10765 10767 10770 10774 10777 10779 10781 10783 10786 10789 10797 10806 10816 10827 10837 10847 10854 10860
10662 10669 10676 10684 10690 10697 10706 10713 10717 10722 10729 10733 10739 10741 10744 10748 10748 10750 10754 10758 10759 10758 10754 10752 10753 10754 10753 10754 10757 10759 10761 10764 10764 10766 10769 10774 10780 10791 10802 10813 10823 10834 10843 10849
10642 10651 10658 10667 10675 10685 10695 10704 10710 10710 10720 10725 10729 10732 10734 10739 10739 10742 10745 10747 10748 10747 10745 10742 10741 10740 10739 10739 10741 10743 10743 10746 10748 10751 10755 10758 10764 10776 10788 10800 10811 10821 10830 10837